SCP
0 0 0 0 0 0 0 0 0 0 0 0 0 0 0 0 0 0 0 0 0 0 0 0 0 0 0 0 0 0 0 0 0 0 0 0 0 0 0 0 0 0 0
0 0 0 0 0 0 0 0 0 0 0 0 0 0 0 0 0 0 0 0 0 0 0 0 0 0 0 0 0 0 0 0 0 0 0 0 0 0 0 0 0 0 0
0 0 0 0 0 0 0 0 0 0 0 0 0 0 0 0 0 0 0 0 0 0 0 0 0 0 0 0 0 0 0 0 0 0 0 0 0 0 0 0 0 0 0
0 0 0 0 0 0 0 0 0 0 0 0 0 0 0 0 0 0 0 0 0 0 0 0 0 0 0 0 0 0 0 0 0 0 0 0 0 0 0 0 0 0 0
0 0 0 0 0 0 0 0 0 0 0 0 0 0 0 0 0 0 0 0 0 0 0 0 0 0 0 0 0 0 0 0 0 0 0 0 0 0 0 0 0 0 0
0 0 0 0 0 0 0 0 0 0 0 0 0 0 0 0 0 0 0 0 0 0 0 0 0 0 0 0 0 0 0 0 0 0 0 0 0 0 0 0 0 0 0
0 0 0 0 0 0 0 0 0 0 0 0 0 0 0 0 0 0 0 0 0 0 0 0 0 0 0 0 0 0 0 0 0 0 0 0 0 0 0 0 0 0 0
0 0 0 0 0 0 0 0 0 0 0 0 0 0 0 0 0 0 0 0 0 0 0 0 0 0 0 0 0 0 0 0 0 0 0 0 0 0 0 0 0 0 0
0 0 0 0 0 0 0 0 0 0 0 0 0 0 0 0 0 0 0 0 0 0 0 0 0 0 0 0 0 0 0 0 0 0 0 0 0 0 0 0 0 0 0
0 0 0 0 0 0 0 0 0 0 0 0 0 0 0 0 0 0 0 0 0 0 0 0 0 0 0 0 0 0 0 0 0 0 0 0 0 0 0 0 0 0 0
0 0 0 0 0 0 0 0 0 0 0 0 0 0 0 0 0 0 0 0 0 0 0 0 0 0 0 0 0 0 0 0 0 0 0 0 0 0 0 0 0 0 0
0 0 0 0 0 0 0 0 0 0 0 0 0 0 0 0 0 0 0 0 0 0 0 0 0 0 0 0 0 0 0 0 0 0 0 0 0 0 0 0 0 0 0
0 0 0 0 0 0 0 0 0 0 0 0 0 0 0 0 0 0 0 0 0 0 0 0 0 0 0 0 0 0 0 0 0 0 0 0 0 0 0 0 0 0 0
0 0 0 0 0 0 0 0 0 0 0 0 0 0 0 0 0 0 0 0 0 0 0 0 0 0 -0 -0 -0 -0 0 0 0 0 0 0 0 0 0 0 0 0 0
0 0 0 0 0 0 0 0 0 0 0 0 0 0 0 0 0 0 0 0 0 0 -0 -0 -0 -0 -0 -0 -0 -0 0 0 0 0 0 0 0 0 0 0 0 0 0
0 0 0 0 0 0 0 0 0 0 0 0 0 0 0 0 0 0 0 0 0 -0 -0 -0 -0 -0 -0 -0 -0 -0 0 0 0 0 0 0 0 0 0 0 0 0 0
0 0 0 0 0 0 0 0 0 0 0 0 0 0 0 0 0 0 0 0 0 -0 -0 -0 -0 -0 -0 -0 -0 -0 0 0 0 0 0 0 0 0 0 0 0 0 0
0 0 0 0 0 0 0 0 0 0 0 0 0 0 0 0 0 0 0 -0 -0 -0 -0 -0 -0 -0 -0 -0 -0 -0 -0 0 0 0 0 0 0 0 0 0 0 0 0
0 0 0 0 0 0 0 0 0 0 0 0 0 0 0 0 0 0 0 -0 -0 -0 -0 -0 -0 -0 -0 -0 -0 -0 -0 0 0 0 0 0 0 0 0 0 0 0 0
0 0 0 0 0 0 0 0 0 0 0 0 0 0 0 0 0 0 -0 -0 -0 -0 -0 -0 -0 -0 -0 -0 -0 -0 0 0 0 0 0 0 0 0 0 0 0 0 0
0 0 0 0 0 0 0 0 0 0 0 0 0 0 0 0 0 0 -0 -0 -0 -0 -0 -0 0 0 0 0 0 0 0 0 0 0 0 0 0 0 0 0 0 0 0
0 0 0 0 0 0 0 0 0 0 0 0 0 0 0 0 0 -0 -0 -0 -0 -0 -0 0 0 0 0 0 0 0 0 0 0 0 0 0 0 0 0 0 0 0 0
0 0 0 0 0 0 0 0 0 0 0 0 0 0 0 0 0 -0 -0 -0 -0 -0 0 0 0 0 0 0 0 0 0 0 0 0 0 0 0 0 0 0 0 0 0
0 0 0 0 0 0 0 0 0 0 0 0 0 0 0 0 0 0 0 0 0 0 0 0 0 0 0 0 0 0 0 0 0 0 0 0 0 0 0 0 0 0 0
0 0 0 0 0 0 0 0 0 0 0 0 0 0 0 0 0 0 0 0 0 0 0 0 0 0 0 0 0 0 0 0 0 0 0 0 0 0 0 0 0 0 0
0 0 0 0 0 0 0 0 0 0 0 0 0 0 0 0 0 0 0 0 0 0 0 0 0 0 0 0 0 0 0 0 0 0 0 0 0 0 0 0 0 0 0
Wind_Speed_500mb
53 51 53 52 50 49 51 51 50 49 50 50 48 48 48 48 47 49 50 51 53 53 55 55 56 56 56 55 55 56 58 59 74 77 70 62 60 56 52 50 45 45 45
50 49 49 46 46 49 50 47 46 45 45 46 46 47 47 46 45 48 49 49 52 54 53 55 55 55 57 55 55 55 56 56 63 73 67 60 56 53 51 47 42 39 40
48 47 44 43 43 43 42 40 39 38 37 39 40 40 40 40 40 41 43 44 47 48 48 51 51 51 54 53 52 54 53 52 55 62 64 58 56 52 50 45 42 41 41
40 38 36 34 32 31 31 30 29 29 28 29 28 27 27 30 32 34 36 39 41 43 43 44 46 48 49 49 49 50 49 49 50 54 58 58 55 51 49 46 42 38 38
35 33 30 29 27 25 23 21 20 19 19 19 19 21 22 24 26 30 33 36 38 39 39 40 41 43 45 45 47 46 44 46 48 50 53 55 53 50 47 46 44 37 31
34 32 30 28 26 23 20 18 16 14 13 11 11 13 14 18 23 27 30 31 32 34 34 34 36 38 40 41 41 41 41 44 45 49 51 52 47 45 42 40 38 36 33
34 32 30 27 23 20 17 14 13 11 9 7 8 10 13 18 23 26 29 28 29 31 32 34 33 34 36 37 37 37 36 36 41 45 48 45 43 38 38 38 36 35 33
32 28 25 22 20 19 18 14 10 8 5 5 6 9 12 16 20 22 24 22 22 23 25 28 31 31 32 33 33 33 33 32 34 41 44 40 38 37 39 36 32 30 30
29 27 25 22 19 16 14 12 10 7 5 4 3 4 7 10 13 13 9 12 14 15 18 22 25 26 25 27 26 26 27 27 29 33 34 33 34 34 34 31 30 28 27
27 26 23 21 17 14 12 9 7 5 4 5 5 7 10 13 22 25 23 24 22 22 22 19 18 19 22 25 27 28 29 29 31 30 29 27 27 27 28 27 27 22 28
28 24 21 17 14 11 9 9 10 11 11 13 13 13 13 14 15 15 16 16 15 13 14 16 19 23 23 22 22 22 23 26 25 28 29 28 29 28 25 27 24 30 37
23 21 18 16 14 14 14 16 17 16 16 17 16 16 15 14 15 16 17 18 18 19 23 27 30 30 29 28 25 23 22 23 24 26 29 28 28 23 22 30 33 30 32
24 21 19 18 19 20 20 20 19 19 19 21 21 21 22 21 22 24 29 31 32 32 34 34 31 32 33 32 31 26 22 21 23 26 29 29 29 30 31 26 27 33 34
26 25 25 24 26 26 25 24 22 23 24 26 27 30 32 34 35 35 35 35 35 36 35 34 35 35 36 36 33 32 29 26 26 26 28 27 24 22 25 31 34 33 30
31 30 30 30 31 32 31 29 27 30 28 31 34 36 38 41 40 38 37 39 39 38 32 32 35 39 40 40 37 34 31 28 25 25 27 28 30 30 31 34 33 30 27
35 37 36 36 35 34 35 39 37 36 37 39 40 41 44 42 39 40 40 39 38 35 35 43 46 46 46 46 46 43 36 33 30 26 24 26 29 33 34 33 31 25 23
38 40 39 37 37 38 40 42 48 46 44 42 43 43 42 42 40 39 38 37 38 36 44 45 43 43 44 45 47 47 47 42 37 32 27 24 25 29 31 29 22 20 19
40 39 40 42 43 43 44 45 47 50 50 47 44 43 40 38 37 35 34 33 37 41 42 42 40 38 38 39 40 41 41 41 39 36 31 28 26 26 25 24 24 20 19
44 44 44 45 47 48 50 50 50 50 50 50 46 41 37 34 32 31 28 29 34 34 35 34 34 34 34 33 34 34 36 37 38 36 34 31 28 29 26 22 22 20 19
48 48 49 51 52 53 55 56 54 52 50 47 43 38 34 29 26 24 23 25 24 25 25 26 26 28 29 29 30 30 31 30 32 32 29 27 25 28 29 26 23 20 19
51 51 50 53 55 56 57 56 56 52 48 43 39 34 27 21 18 17 15 14 15 16 17 19 21 23 24 24 25 28 28 28 32 31 30 29 25 23 24 26 25 21 17
53 54 53 54 55 57 57 57 54 50 45 39 32 27 21 13 8 5 5 8 12 15 19 22 23 25 26 27 28 28 29 31 29 28 30 29 25 24 23 23 25 24 22
53 53 54 56 57 58 59 55 50 45 39 32 25 19 13 9 6 5 7 12 16 19 23 27 29 29 32 33 35 36 36 33 32 32 32 32 31 26 23 22 19 24 26
51 52 55 60 61 60 57 52 46 39 33 27 22 18 15 13 12 13 16 18 20 23 26 29 32 34 35 37 39 41 42 42 39 38 39 37 35 32 34 32 31 32 33
50 53 56 58 59 57 52 47 40 33 28 24 22 19 18 18 20 22 25 29 31 33 35 36 37 38 40 42 44 45 46 48 49 49 49 46 44 43 41 41 41 41 44
55 56 57 57 55 51 46 40 35 31 29 26 25 25 25 27 29 31 32 35 37 38 40 43 45 47 48 49 49 51 53 54 56 56 59 59 57 55 50 49 47 50 51
Wind_Direction_500mb
234 237 239 239 241 244 245 248 250 252 253 256 259 262 264 266 267 269 272 275 277 280 281 282 283 285 285 285 286 286 284 283 281 290 293 298 299 301 300 297 293 287 283
231 233 235 236 237 239 242 245 247 249 250 254 257 260 263 266 269 271 274 277 279 280 282 281 282 284 284 285 285 286 286 286 284 288 294 299 300 301 300 300 295 289 287
224 225 225 224 226 231 234 238 239 241 245 250 255 261 267 270 272 274 274 274 275 279 282 282 285 284 283 285 285 285 285 287 286 287 292 297 299 300 300 299 296 289 282
208 207 206 208 213 216 218 220 226 232 238 246 252 257 262 264 268 272 276 278 281 282 283 283 283 282 283 284 282 282 285 286 287 288 290 294 295 298 299 301 299 293 282
181 180 179 182 186 190 195 199 207 216 226 238 247 256 264 274 278 280 282 284 285 286 287 288 287 285 283 283 284 283 284 285 287 290 290 293 295 297 299 302 301 294 283
162 162 164 167 171 173 179 187 197 207 218 234 251 261 271 276 279 283 285 289 292 295 295 292 290 290 290 285 284 282 281 284 286 288 293 293 296 300 300 299 294 289 278
157 156 156 157 159 162 167 175 186 197 208 225 254 271 276 279 285 290 295 303 305 303 302 301 300 298 294 289 283 279 279 282 286 289 289 293 298 299 295 291 287 283 273
154 154 156 161 166 169 169 166 167 175 191 224 260 280 291 294 297 301 304 311 313 316 318 320 325 326 317 307 297 293 292 291 287 287 288 292 291 290 290 289 284 274 266
164 163 162 159 160 159 162 165 171 181 201 224 257 300 313 320 322 320 350 4 2 353 353 358 0 356 347 333 319 306 297 299 294 292 292 293 290 288 288 288 287 278 272
168 166 163 164 166 166 166 166 170 171 164 129 108 93 71 54 53 52 50 45 38 27 17 8 359 348 338 339 335 326 318 310 304 297 293 285 283 285 283 283 277 270 277
171 170 169 166 166 167 165 160 157 147 134 116 105 91 77 62 51 44 39 37 29 18 0 355 5 6 2 355 346 338 328 328 324 318 312 302 292 282 283 285 267 268 272
179 178 176 171 166 160 153 149 139 129 126 118 111 104 94 83 75 69 64 62 55 48 42 36 26 21 15 11 6 3 359 354 347 338 332 324 312 298 288 274 275 278 281
187 180 172 163 156 150 147 144 142 137 133 126 125 118 106 94 83 75 66 60 57 53 51 44 37 28 22 17 13 10 4 359 356 352 346 338 326 314 303 289 290 294 290
182 173 164 160 155 150 149 145 145 141 139 131 122 112 103 95 87 82 78 74 69 64 56 48 40 35 29 23 18 12 4 0 1 359 352 347 341 335 323 315 309 302 284
177 173 168 164 161 156 151 145 146 138 131 122 115 110 106 99 90 86 81 76 70 63 57 56 50 42 33 26 19 8 0 357 357 354 349 344 336 330 328 320 305 291 277
183 177 173 169 165 161 157 148 140 132 127 121 115 110 101 95 91 83 77 74 70 66 64 56 49 42 36 30 24 19 7 353 338 333 335 336 334 330 324 314 304 289 279
185 178 174 171 167 164 158 152 143 133 127 119 111 105 101 99 94 90 85 78 73 66 59 54 48 43 38 33 28 21 16 7 356 346 339 340 344 337 324 316 305 285 266
182 179 174 171 170 167 160 153 145 137 132 126 120 114 109 105 101 95 88 81 75 65 60 55 48 44 39 35 29 23 18 12 7 1 354 356 353 345 336 324 309 285 267
179 176 175 174 171 168 161 153 146 141 137 132 126 122 118 114 106 99 94 80 71 66 61 54 47 42 39 33 27 19 12 9 7 4 359 356 353 346 338 328 320 295 274
178 178 175 173 169 164 160 155 150 147 143 137 133 130 126 118 110 100 86 75 66 59 51 43 36 31 29 25 19 15 10 6 1 353 349 348 340 335 333 324 316 302 282
176 175 176 172 169 166 162 158 155 152 146 142 140 134 130 128 114 98 84 70 56 41 26 16 9 4 2 360 356 353 349 349 351 355 353 340 320 317 317 314 306 294 269
179 177 175 174 171 169 166 163 161 156 153 151 150 148 147 140 123 93 49 23 6 356 350 343 337 332 327 326 328 330 329 329 322 325 332 336 333 322 309 305 298 283 265
183 181 179 176 174 172 170 169 166 163 161 161 162 165 172 191 227 279 326 336 335 336 332 327 324 320 313 308 305 305 307 310 309 305 309 312 310 306 297 290 274 271 264
188 188 185 181 178 176 176 175 174 174 175 177 185 200 218 240 268 291 302 310 315 316 314 312 311 309 305 302 299 296 294 292 290 287 288 293 293 291 286 280 268 260 255
192 191 187 184 182 182 184 186 187 190 194 201 214 230 247 263 276 286 296 302 304 305 306 304 303 302 301 299 298 295 292 289 284 278 275 275 276 278 278 272 266 260 257
186 187 187 188 190 193 195 198 201 207 216 224 234 246 256 267 276 285 291 294 297 301 304 305 306 306 305 303 300 296 292 288 284 280 275 271 268 266 268 268 265 260 257
Wind_Speed_850mb
53 51 53 52 50 49 51 51 50 49 50 50 48 48 48 48 47 49 50 51 53 53 55 55 56 56 56 55 55 56 58 59 74 77 70 62 60 56 52 50 45 45 45
50 49 49 46 46 49 50 47 46 45 45 46 46 47 47 46 45 48 49 49 52 54 53 55 55 55 57 55 55 55 56 56 63 73 67 60 56 53 51 47 42 39 40
48 47 44 43 43 43 42 40 39 38 37 39 40 40 40 40 40 41 43 44 47 48 48 51 51 51 54 53 52 54 53 52 55 62 64 58 56 52 50 45 42 41 41
40 38 36 34 32 31 31 30 29 29 28 29 28 27 27 30 32 34 36 39 41 43 43 44 46 48 49 49 49 50 49 49 50 54 58 58 55 51 49 46 42 38 38
35 33 30 29 27 25 23 21 20 19 19 19 19 21 22 24 26 30 33 36 38 39 39 40 41 43 45 45 47 46 44 46 48 50 53 55 53 50 47 46 44 37 31
34 32 30 28 26 23 20 18 16 14 13 11 11 13 14 18 23 27 30 31 32 34 34 34 36 38 40 41 41 41 41 44 45 49 51 52 47 45 42 40 38 36 33
34 32 30 27 23 20 17 14 13 11 9 7 8 10 13 18 23 26 29 28 29 31 32 34 33 34 36 37 37 37 36 36 41 45 48 45 43 38 38 38 36 35 33
32 28 25 22 20 19 18 14 10 8 5 5 6 9 12 16 20 22 24 22 22 23 25 28 31 31 32 33 33 33 33 32 34 41 44 40 38 37 39 36 32 30 30
29 27 25 22 19 16 14 12 10 7 5 4 3 4 7 10 13 13 9 12 14 15 18 22 25 26 25 27 26 26 27 27 29 33 34 33 34 34 34 31 30 28 27
27 26 23 21 17 14 12 9 7 5 4 5 5 7 10 13 22 25 23 24 22 22 22 19 18 19 22 25 27 28 29 29 31 30 29 27 27 27 28 27 27 22 28
28 24 21 17 14 11 9 9 10 11 11 13 13 13 13 14 15 15 16 16 15 13 14 16 19 23 23 22 22 22 23 26 25 28 29 28 29 28 25 27 24 30 37
23 21 18 16 14 14 14 16 17 16 16 17 16 16 15 14 15 16 17 18 18 19 23 27 30 30 29 28 25 23 22 23 24 26 29 28 28 23 22 30 33 30 32
24 21 19 18 19 20 20 20 19 19 19 21 21 21 22 21 22 24 29 31 32 32 34 34 31 32 33 32 31 26 22 21 23 26 29 29 29 30 31 26 27 33 34
26 25 25 24 26 26 25 24 22 23 24 26 27 30 32 34 35 35 35 35 35 36 35 34 35 35 36 36 33 32 29 26 26 26 28 27 24 22 25 31 34 33 30
31 30 30 30 31 32 31 29 27 30 28 31 34 36 38 41 40 38 37 39 39 38 32 32 35 39 40 40 37 34 31 28 25 25 27 28 30 30 31 34 33 30 27
35 37 36 36 35 34 35 39 37 36 37 39 40 41 44 42 39 40 40 39 38 35 35 43 46 46 46 46 46 43 36 33 30 26 24 26 29 33 34 33 31 25 23
38 40 39 37 37 38 40 42 48 46 44 42 43 43 42 42 40 39 38 37 38 36 44 45 43 43 44 45 47 47 47 42 37 32 27 24 25 29 31 29 22 20 19
40 39 40 42 43 43 44 45 47 50 50 47 44 43 40 38 37 35 34 33 37 41 42 42 40 38 38 39 40 41 41 41 39 36 31 28 26 26 25 24 24 20 19
44 44 44 45 47 48 50 50 50 50 50 50 46 41 37 34 32 31 28 29 34 34 35 34 34 34 34 33 34 34 36 37 38 36 34 31 28 29 26 22 22 20 19
48 48 49 51 52 53 55 56 54 52 50 47 43 38 34 29 26 24 23 25 24 25 25 26 26 28 29 29 30 30 31 30 32 32 29 27 25 28 29 26 23 20 19
51 51 50 53 55 56 57 56 56 52 48 43 39 34 27 21 18 17 15 14 15 16 17 19 21 23 24 24 25 28 28 28 32 31 30 29 25 23 24 26 25 21 17
53 54 53 54 55 57 57 57 54 50 45 39 32 27 21 13 8 5 5 8 12 15 19 22 23 25 26 27 28 28 29 31 29 28 30 29 25 24 23 23 25 24 22
53 53 54 56 57 58 59 55 50 45 39 32 25 19 13 9 6 5 7 12 16 19 23 27 29 29 32 33 35 36 36 33 32 32 32 32 31 26 23 22 19 24 26
51 52 55 60 61 60 57 52 46 39 33 27 22 18 15 13 12 13 16 18 20 23 26 29 32 34 35 37 39 41 42 42 39 38 39 37 35 32 34 32 31 32 33
50 53 56 58 59 57 52 47 40 33 28 24 22 19 18 18 20 22 25 29 31 33 35 36 37 38 40 42 44 45 46 48 49 49 49 46 44 43 41 41 41 41 44
55 56 57 57 55 51 46 40 35 31 29 26 25 25 25 27 29 31 32 35 37 38 40 43 45 47 48 49 49 51 53 54 56 56 59 59 57 55 50 49 47 50 51
Wind_Direction_850mb
234 237 239 239 241 244 245 248 250 252 253 256 259 262 264 266 267 269 272 275 277 280 281 282 283 285 285 285 286 286 284 283 281 290 293 298 299 301 300 297 293 287 283
231 233 235 236 237 239 242 245 247 249 250 254 257 260 263 266 269 271 274 277 279 280 282 281 282 284 284 285 285 286 286 286 284 288 294 299 300 301 300 300 295 289 287
224 225 225 224 226 231 234 238 239 241 245 250 255 261 267 270 272 274 274 274 275 279 282 282 285 284 283 285 285 285 285 287 286 287 292 297 299 300 300 299 296 289 282
208 207 206 208 213 216 218 220 226 232 238 246 252 257 262 264 268 272 276 278 281 282 283 283 283 282 283 284 282 282 285 286 287 288 290 294 295 298 299 301 299 293 282
181 180 179 182 186 190 195 199 207 216 226 238 247 256 264 274 278 280 282 284 285 286 287 288 287 285 283 283 284 283 284 285 287 290 290 293 295 297 299 302 301 294 283
162 162 164 167 171 173 179 187 197 207 218 234 251 261 271 276 279 283 285 289 292 295 295 292 290 290 290 285 284 282 281 284 286 288 293 293 296 300 300 299 294 289 278
157 156 156 157 159 162 167 175 186 197 208 225 254 271 276 279 285 290 295 303 305 303 302 301 300 298 294 289 283 279 279 282 286 289 289 293 298 299 295 291 287 283 273
154 154 156 161 166 169 169 166 167 175 191 224 260 280 291 294 297 301 304 311 313 316 318 320 325 326 317 307 297 293 292 291 287 287 288 292 291 290 290 289 284 274 266
164 163 162 159 160 159 162 165 171 181 201 224 257 300 313 320 322 320 350 4 2 353 353 358 0 356 347 333 319 306 297 299 294 292 292 293 290 288 288 288 287 278 272
168 166 163 164 166 166 166 166 170 171 164 129 108 93 71 54 53 52 50 45 38 27 17 8 359 348 338 339 335 326 318 310 304 297 293 285 283 285 283 283 277 270 277
171 170 169 166 166 167 165 160 157 147 134 116 105 91 77 62 51 44 39 37 29 18 0 355 5 6 2 355 346 338 328 328 324 318 312 302 292 282 283 285 267 268 272
179 178 176 171 166 160 153 149 139 129 126 118 111 104 94 83 75 69 64 62 55 48 42 36 26 21 15 11 6 3 359 354 347 338 332 324 312 298 288 274 275 278 281
187 180 172 163 156 150 147 144 142 137 133 126 125 118 106 94 83 75 66 60 57 53 51 44 37 28 22 17 13 10 4 359 356 352 346 338 326 314 303 289 290 294 290
182 173 164 160 155 150 149 145 145 141 139 131 122 112 103 95 87 82 78 74 69 64 56 48 40 35 29 23 18 12 4 0 1 359 352 347 341 335 323 315 309 302 284
177 173 168 164 161 156 151 145 146 138 131 122 115 110 106 99 90 86 81 76 70 63 57 56 50 42 33 26 19 8 0 357 357 354 349 344 336 330 328 320 305 291 277
183 177 173 169 165 161 157 148 140 132 127 121 115 110 101 95 91 83 77 74 70 66 64 56 49 42 36 30 24 19 7 353 338 333 335 336 334 330 324 314 304 289 279
185 178 174 171 167 164 158 152 143 133 127 119 111 105 101 99 94 90 85 78 73 66 59 54 48 43 38 33 28 21 16 7 356 346 339 340 344 337 324 316 305 285 266
182 179 174 171 170 167 160 153 145 137 132 126 120 114 109 105 101 95 88 81 75 65 60 55 48 44 39 35 29 23 18 12 7 1 354 356 353 345 336 324 309 285 267
179 176 175 174 171 168 161 153 146 141 137 132 126 122 118 114 106 99 94 80 71 66 61 54 47 42 39 33 27 19 12 9 7 4 359 356 353 346 338 328 320 295 274
178 178 175 173 169 164 160 155 150 147 143 137 133 130 126 118 110 100 86 75 66 59 51 43 36 31 29 25 19 15 10 6 1 353 349 348 340 335 333 324 316 302 282
176 175 176 172 169 166 162 158 155 152 146 142 140 134 130 128 114 98 84 70 56 41 26 16 9 4 2 360 356 353 349 349 351 355 353 340 320 317 317 314 306 294 269
179 177 175 174 171 169 166 163 161 156 153 151 150 148 147 140 123 93 49 23 6 356 350 343 337 332 327 326 328 330 329 329 322 325 332 336 333 322 309 305 298 283 265
183 181 179 176 174 172 170 169 166 163 161 161 162 165 172 191 227 279 326 336 335 336 332 327 324 320 313 308 305 305 307 310 309 305 309 312 310 306 297 290 274 271 264
188 188 185 181 178 176 176 175 174 174 175 177 185 200 218 240 268 291 302 310 315 316 314 312 311 309 305 302 299 296 294 292 290 287 288 293 293 291 286 280 268 260 255
192 191 187 184 182 182 184 186 187 190 194 201 214 230 247 263 276 286 296 302 304 305 306 304 303 302 301 299 298 295 292 289 284 278 275 275 276 278 278 272 266 260 257
186 187 187 188 190 193 195 198 201 207 216 224 234 246 256 267 276 285 291 294 297 301 304 305 306 306 305 303 300 296 292 288 284 280 275 271 268 266 268 268 265 260 257